KQA448 HRYR-HBBA

Flight info

Callsign KQA448
Flight time 0h 21m
Altitude 20000
Route GADBO DCT XABOB DCT GAVDA
Aircraft E190/M-SDE3GILORVW/S

Departure

Time 2026-04-20 03:52
Airport Kigali International Airport (HRYR)

Arrival

Time 2026-04-20 04:14
Airport Bujumbura Melchior Ndadaye International Airport (HBBA)
Time Latitude Longitude Altitude Speed Heading
2026-04-20 03:34 -1.96434 30.13460 4886 ft 0 kts 329°
2026-04-20 03:46 -1.96437 30.13462 4890 ft 3 kts 329°
2026-04-20 03:46 -1.96461 30.13475 4888 ft 4 kts 335°
2026-04-20 03:46 -1.96486 30.13485 4884 ft 4 kts 339°
2026-04-20 03:46 -1.96511 30.13494 4884 ft 4 kts 339°
2026-04-20 03:47 -1.96534 30.13505 4886 ft 4 kts 302°
2026-04-20 03:47 -1.96548 30.13505 4890 ft 4 kts 205°
2026-04-20 03:47 -1.96563 30.13502 4887 ft 0 kts 189°
2026-04-20 03:49 -1.96566 30.13501 4887 ft 1 kts 189°
2026-04-20 03:49 -1.96584 30.13498 4890 ft 4 kts 192°
2026-04-20 03:49 -1.96606 30.13476 4887 ft 6 kts 242°
2026-04-20 03:50 -1.96607 30.13430 4889 ft 8 kts 279°
2026-04-20 03:50 -1.96620 30.13373 4886 ft 10 kts 229°
2026-04-20 03:50 -1.96694 30.13357 4887 ft 10 kts 188°
2026-04-20 03:50 -1.96753 30.13352 4887 ft 2 kts 158°
2026-04-20 03:51 -1.96761 30.13366 4884 ft 3 kts 115°
2026-04-20 03:51 -1.96766 30.13389 4881 ft 4 kts 100°
2026-04-20 03:51 -1.96771 30.13416 4886 ft 4 kts 100°
2026-04-20 03:51 -1.96782 30.13473 4889 ft 27 kts 100°
2026-04-20 03:52 -1.96857 30.13904 4885 ft 99 kts 100°
2026-04-20 03:52 -1.97012 30.14804 4889 ft 160 kts 99°
2026-04-20 03:52 -1.97220 30.15991 5417 ft 181 kts 99°
2026-04-20 03:52 -1.97421 30.17250 6234 ft 184 kts 100°
2026-04-20 03:53 -1.97619 30.18557 6843 ft 197 kts 101°
2026-04-20 03:53 -1.98184 30.19822 7418 ft 208 kts 133°
2026-04-20 03:53 -1.99510 30.20548 7890 ft 233 kts 164°
2026-04-20 03:53 -2.01196 30.20926 8336 ft 261 kts 167°
2026-04-20 03:54 -2.03093 30.20926 8844 ft 288 kts 192°
2026-04-20 03:54 -2.04849 30.19893 9662 ft 303 kts 223°
2026-04-20 03:54 -2.06071 30.18131 10407 ft 318 kts 238°
2026-04-20 03:54 -2.07103 30.16104 10923 ft 335 kts 243°
2026-04-20 03:55 -2.08063 30.13952 11668 ft 342 kts 245°
2026-04-20 03:55 -2.09011 30.11757 12487 ft 346 kts 245°
2026-04-20 03:55 -2.09965 30.09521 13275 ft 353 kts 246°
2026-04-20 03:55 -2.10885 30.07222 14058 ft 359 kts 248°
2026-04-20 03:56 -2.11899 30.04929 14795 ft 362 kts 237°
2026-04-20 03:56 -2.13612 30.03115 15583 ft 359 kts 211°
2026-04-20 03:56 -2.15810 30.01944 16382 ft 359 kts 202°
2026-04-20 03:56 -2.18058 30.00911 17094 ft 362 kts 201°
2026-04-20 03:57 -2.20371 29.99867 17768 ft 367 kts 201°
2026-04-20 03:57 -2.22705 29.98815 18448 ft 370 kts 201°
2026-04-20 03:57 -2.25060 29.97762 19008 ft 373 kts 202°
2026-04-20 03:57 -2.27357 29.96513 19524 ft 378 kts 207°
2026-04-20 03:58 -2.29628 29.95161 20049 ft 380 kts 208°
2026-04-20 03:58 -2.31922 29.93781 20258 ft 394 kts 208°
2026-04-20 03:58 -2.34327 29.92336 20274 ft 410 kts 209°
2026-04-20 03:58 -2.36795 29.90851 20167 ft 418 kts 209°
2026-04-20 03:59 -2.39289 29.89352 20121 ft 418 kts 209°
2026-04-20 03:59 -2.41794 29.87851 20129 ft 420 kts 209°
2026-04-20 03:59 -2.44296 29.86351 20119 ft 420 kts 209°
2026-04-20 03:59 -2.46808 29.84845 20133 ft 421 kts 209°
2026-04-20 04:00 -2.49318 29.83341 20127 ft 421 kts 209°
2026-04-20 04:00 -2.51797 29.81852 20128 ft 421 kts 209°
2026-04-20 04:00 -2.54345 29.80327 20124 ft 421 kts 209°
2026-04-20 04:00 -2.56830 29.78840 20134 ft 421 kts 209°
2026-04-20 04:01 -2.59343 29.77332 20119 ft 421 kts 209°
2026-04-20 04:01 -2.61855 29.75829 20073 ft 419 kts 209°
2026-04-20 04:01 -2.64307 29.74357 19700 ft 404 kts 209°
2026-04-20 04:01 -2.66671 29.72939 19331 ft 391 kts 209°
2026-04-20 04:02 -2.68991 29.71547 18750 ft 385 kts 209°
2026-04-20 04:02 -2.71268 29.70184 18183 ft 379 kts 208°
2026-04-20 04:02 -2.73502 29.68843 17722 ft 370 kts 208°
2026-04-20 04:02 -2.75697 29.67527 17233 ft 367 kts 208°
2026-04-20 04:03 -2.77885 29.66220 16755 ft 366 kts 208°
2026-04-20 04:03 -2.79927 29.64681 16192 ft 372 kts 226°
2026-04-20 04:03 -2.81441 29.62596 15749 ft 370 kts 237°
2026-04-20 04:03 -2.82752 29.60386 15227 ft 370 kts 238°
2026-04-20 04:04 -2.84032 29.58167 14726 ft 365 kts 238°
2026-04-20 04:04 -2.85318 29.56001 14246 ft 359 kts 237°
2026-04-20 04:04 -2.86606 29.53889 13754 ft 353 kts 237°
2026-04-20 04:04 -2.87881 29.51820 13335 ft 346 kts 236°
2026-04-20 04:05 -2.89140 29.49787 12842 ft 341 kts 236°
2026-04-20 04:05 -2.90375 29.47794 12408 ft 334 kts 236°
2026-04-20 04:05 -2.91590 29.45832 11969 ft 329 kts 236°
2026-04-20 04:05 -2.92791 29.43900 11514 ft 325 kts 236°
2026-04-20 04:06 -2.93977 29.41990 11095 ft 322 kts 236°
2026-04-20 04:06 -2.95139 29.40116 10659 ft 319 kts 236°
2026-04-20 04:06 -2.96310 29.38230 10317 ft 314 kts 236°
2026-04-20 04:06 -2.97455 29.36391 9823 ft 314 kts 236°
2026-04-20 04:07 -2.98592 29.34562 9444 ft 308 kts 236°
2026-04-20 04:07 -2.99722 29.32754 9029 ft 304 kts 236°
2026-04-20 04:07 -3.00837 29.30964 8641 ft 300 kts 236°
2026-04-20 04:07 -3.01952 29.29219 8239 ft 295 kts 231°
2026-04-20 04:08 -3.03499 29.27955 7859 ft 286 kts 201°
2026-04-20 04:08 -3.05404 29.27501 7540 ft 277 kts 181°
2026-04-20 04:08 -3.07270 29.27772 7237 ft 269 kts 162°
2026-04-20 04:08 -3.09067 29.28234 6958 ft 264 kts 169°
2026-04-20 04:09 -3.10868 29.28467 6622 ft 254 kts 172°
2026-04-20 04:09 -3.12546 29.28693 6314 ft 233 kts 169°
2026-04-20 04:09 -3.14078 29.28958 5983 ft 215 kts 169°
2026-04-20 04:09 -3.15510 29.29181 5688 ft 201 kts 171°
2026-04-20 04:10 -3.16860 29.29388 5419 ft 192 kts 170°
2026-04-20 04:10 -3.18158 29.29596 5190 ft 187 kts 170°
2026-04-20 04:10 -3.19392 29.29792 4920 ft 173 kts 170°
2026-04-20 04:10 -3.20535 29.29972 4679 ft 161 kts 171°
2026-04-20 04:11 -3.21606 29.30143 4451 ft 151 kts 171°
2026-04-20 04:11 -3.22629 29.30305 4248 ft 147 kts 171°
2026-04-20 04:11 -3.23635 29.30464 4064 ft 147 kts 171°
2026-04-20 04:11 -3.24658 29.30626 3864 ft 149 kts 171°
2026-04-20 04:12 -3.25685 29.30789 3651 ft 150 kts 171°
2026-04-20 04:12 -3.26702 29.30948 3442 ft 149 kts 171°
2026-04-20 04:12 -3.27723 29.31112 3234 ft 148 kts 171°
2026-04-20 04:12 -3.28738 29.31274 3023 ft 147 kts 171°
2026-04-20 04:13 -3.29743 29.31436 2822 ft 145 kts 171°
2026-04-20 04:13 -3.30739 29.31590 2629 ft 144 kts 171°
2026-04-20 04:13 -3.31669 29.31734 2573 ft 121 kts 171°
2026-04-20 04:13 -3.32289 29.31831 2574 ft 51 kts 171°
2026-04-20 04:14 -3.32407 29.31868 2572 ft 1 kts 99°
2026-04-20 04:14 -3.32406 29.31870 2573 ft 1 kts 79°
2026-04-20 04:14 -3.32389 29.31896 2573 ft 7 kts 56°
2026-04-20 04:14 -3.32382 29.31927 2572 ft 8 kts 80°
2026-04-20 04:15 -3.32362 29.31970 2570 ft 6 kts 31°
2026-04-20 04:15 -3.32324 29.31972 2571 ft 5 kts 352°
2026-04-20 04:15 -3.32285 29.31966 2572 ft 7 kts 351°
2026-04-20 04:15 -3.32235 29.31957 2572 ft 8 kts 350°
2026-04-20 04:16 -3.32181 29.31976 2571 ft 7 kts 24°
2026-04-20 04:16 -3.32149 29.31975 2571 ft 6 kts 355°
2026-04-20 04:16 -3.32094 29.31969 2571 ft 10 kts 354°
2026-04-20 04:16 -3.32019 29.31953 2571 ft 13 kts 348°
2026-04-20 04:17 -3.31932 29.31942 2571 ft 1 kts
2026-04-20 04:17 -3.31916 29.31955 2569 ft 4 kts 60°
2026-04-20 04:17 -3.31886 29.31985 2570 ft 8 kts 38°
2026-04-20 04:17 -3.31865 29.32010 2570 ft 1 kts 94°
2026-04-20 04:18 -3.31877 29.32022 2570 ft 3 kts 152°
2026-04-20 04:18 -3.31880 29.32022 2570 ft 0 kts 177°